Ketchikan, AK

9:05 AM AKST on November 13, 2018 (GMT -0900)
Ketchikan International

Weather History for PAKT - September, 2017

Change the Weather History Date:

Monday, September 25, 2017

  Actual Average Record
Temperature  
Mean Temperature 56 °F -  
Max Temperature 60 °F 58 °F 69 °F (1954)
Min Temperature 53 °F 44 °F 31 °F (1972)
Degree Days  
Heating Degree Days 8    
Growing Degree Days 6 (Base 50)    
Moisture  
Dew Point 55 °F    
Average Humidity 99    
Maximum Humidity 100    
Minimum Humidity 90    
Precipitation  
Precipitation 0.23 in - - ()
Sea Level Pressure  
Sea Level Pressure 29.92 in    
Wind  
Wind Speed 4 mph (North)    
Max Wind Speed 14 mph    
Max Gust Speed -    
Visibility 4 miles    
Events Rain    
Averages and records for this station are not official NWS values.
T = Trace of Precipitation, MM = Missing Value Source: NWS Daily Summary

Daily Weather History Graph

Daily Weather History Graph

Search for Another Location

Airport or City:

Astronomy

Sep. 25, 2017 Rise Set
Actual Time 6:38 AM AKDT 6:36 PM AKDT
Civil Twilight 6:02 AM AKDT 7:13 PM AKDT
Nautical Twilight 5:19 AM AKDT 7:56 PM AKDT
Astronomical Twilight 4:33 AM AKDT 8:41 PM AKDT
Moon 12:41 PM AKDT (9/25) 9:25 PM AKDT (9/25)
Length of Visible Light 13h 10m
Length of Day
11h 57m
Waxing Crescent, 29% of the Moon is Illuminated
Sep 25
Waxing Crescent
Sep 27
First Quarter
Oct 5
Full
Oct 12
Last Quarter
Oct 19
New

Hourly Weather History & Observations

Time (AKDT) Temp. Dew Point Humidity Pressure Visibility Wind Dir Wind Speed Gust Speed Precip Events Conditions
12:02 AM 55.9 °F 55.0 °F 97% 29.87 in 2.0 mi Calm Calm - 0.00 in Rain Light Rain
12:11 AM 55.9 °F 55.0 °F 97% 29.87 in 1.8 mi Calm Calm - 0.01 in Rain Light Rain
12:19 AM 55.9 °F 55.0 °F 97% 29.87 in 1.5 mi Calm Calm - 0.01 in Rain Light Rain
12:27 AM 55.9 °F 55.0 °F 97% 29.87 in 1.8 mi ESE 3.5 mph - 0.02 in Rain Light Rain
12:43 AM 55.9 °F 55.0 °F 97% 29.87 in 2.5 mi Calm Calm - 0.03 in Rain Light Rain
12:53 AM 55.9 °F 55.0 °F 97% 29.88 in 2.0 mi Calm Calm - 0.03 in Rain Light Rain
1:16 AM 55.9 °F 55.0 °F 97% 29.88 in 0.8 mi Calm Calm - 0.01 in Rain Light Rain
1:25 AM 55.0 °F 55.0 °F 100% 29.88 in 1.0 mi Calm Calm - 0.01 in Rain Light Rain
1:48 AM 55.4 °F 55.4 °F 100% 29.87 in 1.5 mi Calm Calm - 0.04 in Rain Light Rain
1:53 AM 55.0 °F 55.0 °F 100% 29.88 in 2.0 mi Calm Calm - 0.04 in Rain Light Rain
2:06 AM 55.0 °F 55.0 °F 100% 29.87 in 3.0 mi Calm Calm - 0.01 in Rain Light Rain
2:20 AM 55.0 °F 55.0 °F 100% 29.87 in 2.5 mi Calm Calm - 0.01 in   Overcast
2:29 AM 55.0 °F 55.0 °F 100% 29.87 in 2.5 mi Calm Calm - 0.01 in Rain Light Rain
2:37 AM 55.0 °F 55.0 °F 100% 29.87 in 3.0 mi Calm Calm - 0.02 in Rain Light Rain
2:53 AM 55.0 °F 55.0 °F 100% 29.88 in 3.0 mi NW 6.9 mph - 0.02 in   Overcast
3:00 AM 54.0 °F 54.0 °F 100% 29.88 in 2.5 mi NNW 8.1 mph - 0.00 in Rain Light Rain
3:29 AM 54.0 °F 54.0 °F 100% 29.88 in 4.0 mi NNW 5.8 mph - 0.01 in   Overcast
3:51 AM 53.6 °F 53.6 °F 100% 29.88 in 2.5 mi NW 5.8 mph - 0.02 in   Overcast
3:53 AM 54.0 °F 53.1 °F 97% 29.88 in 2.5 mi NNW 5.8 mph - 0.02 in   Overcast
4:05 AM 53.1 °F 53.1 °F 100% 29.88 in 3.0 mi NNW 5.8 mph - N/A   Overcast
4:21 AM 53.1 °F 53.1 °F 100% 29.88 in 2.5 mi NNW 5.8 mph - 0.01 in Rain Light Rain
4:29 AM 53.1 °F 53.1 °F 100% 29.88 in 2.5 mi NW 4.6 mph - 0.01 in Rain Light Rain
4:37 AM 53.1 °F 53.1 °F 100% 29.88 in 3.0 mi NNW 5.8 mph - 0.01 in   Overcast
4:53 AM 53.1 °F 53.1 °F 100% 29.89 in 2.5 mi NNW 6.9 mph - 0.02 in Rain Light Rain
5:20 AM 53.1 °F 53.1 °F 100% 29.89 in 3.0 mi NNW 10.4 mph - 0.01 in Rain Light Rain
5:30 AM 53.1 °F 53.1 °F 100% 29.89 in 2.5 mi NNW 9.2 mph - 0.01 in Rain Light Rain
5:53 AM 53.1 °F 53.1 °F 100% 29.90 in 3.0 mi NNW 8.1 mph - 0.02 in   Overcast
6:07 AM 53.1 °F 53.1 °F 100% 29.90 in 3.0 mi NNW 8.1 mph - N/A   Overcast
6:14 AM 53.1 °F 53.1 °F 100% 29.90 in 2.5 mi NNW 9.2 mph - N/A   Overcast
6:20 AM 53.6 °F 53.6 °F 100% 29.90 in 3.0 mi NNW 8.1 mph - N/A Rain Light Rain
6:53 AM 53.6 °F 53.6 °F 100% 29.91 in 3.0 mi NNW 8.1 mph - N/A   Overcast
7:53 AM 53.6 °F 53.6 °F 100% 29.91 in 3.0 mi NW 6.9 mph - N/A   Overcast
8:53 AM 53.6 °F 53.6 °F 100% 29.92 in 4.0 mi NNW 5.8 mph - N/A   Overcast
9:53 AM 55.0 °F 54.0 °F 96% 29.93 in 9.0 mi NNW 8.1 mph - N/A   Overcast
10:34 AM 55.0 °F 54.0 °F 96% 29.94 in 10.0 mi NW 8.1 mph - N/A   Overcast
10:53 AM 55.4 °F 53.6 °F 94% 29.95 in 9.0 mi NNW 9.2 mph - N/A   Overcast
11:53 AM 55.0 °F 54.0 °F 96% 29.96 in 10.0 mi NNW 8.1 mph - N/A   Overcast
12:53 PM 55.4 °F 53.6 °F 94% 29.96 in 10.0 mi NW 5.8 mph - N/A   Overcast
1:53 PM 57.2 °F 55.4 °F 94% 29.96 in 10.0 mi NNW 5.8 mph - N/A   Overcast
2:53 PM 57.2 °F 55.4 °F 94% 29.96 in 10.0 mi North 3.5 mph - N/A   Overcast
3:53 PM 60.1 °F 57.0 °F 90% 29.96 in 10.0 mi SE 5.8 mph - N/A   Overcast
4:27 PM 59.0 °F 57.2 °F 94% 29.96 in 5.0 mi SE 6.9 mph - N/A   Overcast
4:53 PM 57.9 °F 57.9 °F 100% 29.96 in 3.0 mi SE 8.1 mph - 0.00 in   Overcast
5:53 PM 57.2 °F 57.2 °F 100% 29.95 in 3.0 mi SE 10.4 mph - N/A   Overcast
6:53 PM 55.9 °F 55.9 °F 100% 29.95 in 10.0 mi SSE 6.9 mph - 0.00 in   Overcast
7:50 PM 55.4 °F 55.4 °F 100% 29.96 in 2.5 mi SE 11.5 mph - 0.00 in Rain Light Rain
7:53 PM 55.9 °F 55.9 °F 100% 29.96 in 2.5 mi SSE 9.2 mph - 0.00 in Rain Light Rain
8:53 PM 55.9 °F 55.9 °F 100% 29.97 in 2.0 mi SE 13.8 mph - 0.03 in Rain Light Rain
9:53 PM 55.0 °F 55.0 °F 100% 29.98 in 1.8 mi ESE 12.7 mph - 0.01 in   Overcast
10:07 PM 55.0 °F 55.0 °F 100% 29.97 in 1.8 mi SE 11.5 mph - N/A   Overcast
10:25 PM 55.0 °F 55.0 °F 100% 29.97 in 2.0 mi SE 9.2 mph - N/A   Overcast
10:33 PM 55.0 °F 55.0 °F 100% 29.97 in 1.8 mi SSE 9.2 mph - N/A   Overcast
10:40 PM 55.0 °F 55.0 °F 100% 29.97 in 3.0 mi SSE 9.2 mph - N/A   Overcast
10:51 PM 55.4 °F 55.4 °F 100% 29.98 in 8.0 mi SE 9.2 mph - N/A   Overcast
10:53 PM 55.0 °F 55.0 °F 100% 29.99 in 7.0 mi SE 9.2 mph - N/A   Overcast
11:11 PM 55.0 °F 55.0 °F 100% 29.98 in 2.0 mi SE 9.2 mph - 0.01 in Rain Light Rain
11:14 PM 55.0 °F 55.0 °F 100% 29.98 in 1.8 mi SE 9.2 mph - 0.02 in Rain Light Rain
11:23 PM 55.9 °F 55.0 °F 97% 29.98 in 2.0 mi SE 9.2 mph - 0.02 in Rain Light Rain
11:46 PM 55.9 °F 55.0 °F 97% 29.98 in 3.0 mi SE 11.5 mph - 0.04 in Rain Light Rain
11:53 PM 55.0 °F 55.0 °F 100% 29.99 in 2.5 mi SE 10.4 mph - 0.04 in Rain Light Rain